Regional Weather Roundup
Issued by NWS Newport/Morehead, NC

Current Version | Previous Version | Graphics & Text | Print | Product List | Glossary On
Versions: 1 2 3 4 5 6 7 8 9 10 11 12 13 14 15 16 17 18 19 20 21 22 23 24 25 26 27 28 29 30 31 32 33 34 35 36 37 38 39 40 41 42 43 44 45 46 47 48 49 50
364 ASUS42 KMHX 241114 RWRMHX WEATHER ROUNDUP FOR EASTERN NORTH CAROLINA NATIONAL WEATHER SERVICE NEWPORT/MOREHEAD CITY NC 600 AM EST FRI NOV 24 2017 NOTE: "FAIR" INDICATES FEW OR NO CLOUDS BELOW 12,000 FEET WITH NO SIGNIFICANT WEATHER AND/OR OBSTRUCTIONS TO VISIBILITY NCZ015>017-031-032-045>047-102-103-241200- NORTH COAST CITY SKY/WX TMP DP RH WIND PRES REMARKS EDENTON CLEAR 34 31 90 CALM 30.08S ELIZABETH CITY CLEAR 38 32 79 N8 30.07S KITTY HAWK CLOUDY 46 37 71 CALM 30.03F MANTEO PTCLDY 45 38 77 NE7 30.05S $$ NCZ045>047-081-094-103-104-241200- CENTRAL COAST CITY SKY/WX TMP DP RH WIND PRES REMARKS FRISCO MOCLDY 51 43 74 NE9 30.02R $$ NCZ095-097-098-100-101-241200- SOUTHERN COAST CITY SKY/WX TMP DP RH WIND PRES REMARKS BEAUFORT CLOUDY 45 41 86 N13 30.01F CEDAR ISLAND NOT AVBL JACKSONVILLE CLEAR 39 37 92 N7 30.03S PINEY ISLAND N/A N/A N/A N/A N9 30.02F WILMINGTON CLOUDY 43 36 76 NE13 30.02S $$ NCZ011>013-027>030-043-044-078>080-089-090>093-098-241200- COASTAL PLAIN CITY SKY/WX TMP DP RH WIND PRES REMARKS AHOSKIE CLEAR 26 26 96 CALM 30.08F CLINTON CLEAR 34 34 100 NE5 30.06R ELIZABETHTOWN NOT AVBL GOLDSBORO CLEAR 30 28 91 CALM 30.04F GREENVILLE CLEAR 28 28 100 CALM 30.08S FOG HAVELOCK NOT AVBL KENANSVILLE CLEAR 30 30 100 CALM 30.05S FOG KINSTON CLEAR 30 29 96 CALM 30.07S NEW BERN CLEAR 37 36 96 N8 30.05F RICHLANDS CLEAR 35 34 96 N6 30.04F ROCKY MOUNT CLEAR 27 27 100 CALM 30.07F WASHINGTON CLEAR 31 30 96 N3 30.07S WHITEVILLE CLEAR 37 35 90 N3 30.02F $$ AMZ130-135-150-152-154-156-158-170-250-252-270-ANZ085-086-088-633-658-670-241200- MARINE OBSERVATIONS STATION/POSITION TIME TEMP WIND PRES WAVE SWELL AIR SEA DIR/SP/G HT/PER HT/PER (UTC) (F) (DEG/KT/KT) (MB) (FT/S) (FT/S) CHESAPEAKE LIGHT NOT AVBL 64 E VA BEACH 1050 49 58 20/ 10/ 14 1018.1 5/ 9 5/ 9 DUCK 1048 48 57 40/ 13/ 14 1017.2 2 E DUCK 1100 60 N/A 4/11 2/11 OREGON INLET 1036 49 57 10/ 12/ 15 1017.0 13E OREGON INLT 1048 62 N/A 6/10 7/10 HATTERAS CG 1048 51 58 20/ 17/ 19 1016.3 DIAMOND BUOY 1100 58 72 20/ 17/ 21 1016.1 CAPE LOOKOUT 1100 20/ 14/ 17 1016.4 BEAUFORT LAB 1048 46 58 20/ 11/ 15 1016.3 30 SE NEW RVR IN 1008 55 67 50/ 17/ 21 1015.5 30 SE NEW RVR IN 1100 67 N/A 6/ 5 2/11 27 SE WRIGHTSVLE 1008 56 71 40/ 21/ 29 1015.2 5 SE WRIGHTSVLE 1008 50 63 20/ 16/ 21 1015.6 225 S CAPE HAT 1050 72 76 100/ 12/ 14 1009.7 10/ 8 8/ 8 41 SE CHARLESTON 1100 63 74 30/ 23/ 29 1012.7 $$

USA.gov is the U.S. government's official web portal to all federal, state and local government web resources and services.